Location: Grange Verzio
(44.5000°N, 6.9833°E)
Time: 10:39:12
(UTC+00:00)

YAOGAN 1 - Pass Details

Date: 01 February 2023
Orbit: 616 x 618 km, 97.8° (Epoch: 30 March)

Event Time Altitude Azimuth Distance (km) Brightness Sun altitude
Rises 17:32:01 0° 140° (SE) 2,880 5.7 -9.5°
Reaches altitude 10° 17:34:23 10° 129° (SE) 1,980 4.8 -9.9°
Maximum altitude 17:38:09 30° 68° (ENE) 1,105 3.3 -10.5°
Drops below altitude 10° 17:41:57 10° 7° (N) 1,995 5.0 -11.2°
Sets 17:44:20 0° 357° (N) 2,906 5.9 -11.6°
